Location: Maccacari
(45.1333°N, 11.1333°E)
Time: 15:26:01
(UTC+00:00)

Explorer 7 - Visible Passes

Search period start: 23 January 2021 00:00
Search period end: 02 February 2021 00:00
Orbit: 484 x 678 km, 50.3° (Epoch: 23 January)

Date Brightness Start Highest point End Pass type
(mag) Time Alt. Az. Time Alt. Az. Time Alt. Az.
23 Jan 6.9 04:30:07 66° SE 04:30:07 66° SE 04:34:00 10° ENE visible
23 Jan 7.3 06:06:51 10° W 06:10:39 45° N 06:14:42 10° ENE visible
24 Jan 6.6 04:34:45 79° NE 04:34:45 79° NE 04:38:36 10° ENE visible
24 Jan 7.5 06:11:36 10° WNW 06:15:22 40° N 06:19:21 10° ENE visible
25 Jan 6.8 04:39:18 62° N 04:39:18 62° N 04:43:10 10° ENE visible
26 Jan 7.0 04:43:46 49° NNW 04:43:48 49° NNW 04:47:45 10° ENE visible
27 Jan 7.2 04:48:12 41° NNW 04:48:30 42° N 04:52:22 10° ENE visible
28 Jan 10.1 03:16:16 10° ENE 03:16:16 10° ENE 03:16:19 10° ENE visible
28 Jan 7.4 04:52:34 36° NNW 04:53:13 38° N 04:57:02 10° ENE visible
29 Jan 9.9 03:20:38 11° ENE 03:20:38 11° ENE 03:20:53 10° ENE visible
29 Jan 7.5 04:56:56 32° NNW 04:57:56 38° N 05:01:45 10° ENE visible
30 Jan 9.8 03:24:59 13° ENE 03:24:59 13° ENE 03:25:28 10° ENE visible
30 Jan 7.5 05:01:16 29° NW 05:02:39 40° N 05:06:31 10° ENE visible
31 Jan 9.6 03:29:20 15° ENE 03:29:20 15° ENE 03:30:05 10° ENE visible
31 Jan 7.4 05:05:37 27° NW 05:07:20 45° NNE 05:11:17 10° E visible
01 Feb 9.4 03:33:41 17° ENE 03:33:41 17° ENE 03:34:45 10° ENE visible
01 Feb 7.1 05:09:58 25° NW 05:12:00 55° NNE 05:16:02 10° E visible
